| time (UTC) | temp F | wind direction | speed MPH | gust MPH | rain 1hr in | rain 24hr in | rain mn in | humidity % | barometer mb |
| 20260831214111 | 87 | 118 | 3.0 | 11.0 | 0.00 | 0.00 | 0.00 | 30 | 1018.3 |
| 20260831213612 | 87 | 180 | 4.0 | 8.0 | 0.00 | 0.00 | 0.00 | 33 | 1018.4 |
| 20260831213111 | 87 | 0 | 5.0 | 11.0 | 0.00 | 0.00 | 0.00 | 33 | 1018.6 |
| 20260831212612 | 86 | 0 | 5.0 | 11.0 | 0.00 | 0.00 | 0.00 | 31 | 1018.7 |
| 20260831212110 | 86 | 168 | 6.0 | 12.0 | 0.00 | 0.00 | 0.00 | 33 | 1018.7 |
| 20260831211611 | 86 | 0 | 5.0 | 12.0 | 0.00 | 0.00 | 0.00 | 31 | 1018.8 |
| 20260831211110 | 86 | 0 | 6.0 | 10.0 | 0.00 | 0.00 | 0.00 | 33 | 1018.8 |
| 20260831210610 | 86 | 124 | 6.0 | 10.0 | 0.00 | 0.00 | 0.00 | 33 | 1018.9 |
| 20260831210109 | 85 | 0 | 5.0 | 10.0 | 0.00 | 0.00 | 0.00 | 35 | 1018.9 |
| 20260831205840 | 85 | 121 | 4.0 | 8.0 | 0.00 | 0.00 | 0.00 | 34 | 1019.0 |
| 20260831205109 | 85 | 123 | 5.0 | 11.0 | 0.00 | 0.00 | 0.00 | 34 | 1019.0 |
| 20260831204610 | 85 | 0 | 6.0 | 11.0 | 0.00 | 0.00 | 0.00 | 34 | 1019.1 |
| 20260831204108 | 85 | 106 | 5.0 | 10.0 | 0.00 | 0.00 | 0.00 | 34 | 1019.4 |
| 20260831203609 | 85 | 0 | 4.0 | 11.0 | 0.00 | 0.00 | 0.00 | 34 | 1019.4 |
| 20260831203108 | 85 | 0 | 5.0 | 11.0 | 0.00 | 0.00 | 0.00 | 33 | 1019.5 |
| 20260831202610 | 85 | 194 | 5.0 | 9.0 | 0.00 | 0.00 | 0.00 | 37 | 1019.5 |
| 20260831202108 | 85 | 0 | 5.0 | 9.0 | 0.00 | 0.00 | 0.00 | 36 | 1019.6 |
| 20260831201608 | 84 | 0 | 5.0 | 9.0 | 0.00 | 0.00 | 0.00 | 35 | 1019.7 |
| 20260831201109 | 84 | 167 | 6.0 | 12.0 | 0.00 | 0.00 | 0.00 | 36 | 1019.8 |
| 20260831200605 | 84 | 0 | 5.0 | 12.0 | 0.00 | 0.00 | 0.00 | 34 | 1019.9 |
| 20260831200107 | 84 | 0 | 4.0 | 9.0 | 0.00 | 0.00 | 0.00 | 34 | 1019.9 |
| 20260831195836 | 84 | 0 | 5.0 | 9.0 | 0.00 | 0.00 | 0.00 | 34 | 1020.1 |
| 20260831195107 | 84 | 163 | 5.0 | 9.0 | 0.00 | 0.00 | 0.00 | 36 | 1020.1 |
| 20260831194606 | 84 | 0 | 4.0 | 9.0 | 0.00 | 0.00 | 0.00 | 34 | 1020.2 |
| 20260831194106 | 84 | 0 | 3.0 | 8.0 | 0.00 | 0.00 | 0.00 | 37 | 1020.3 |
| 20260831193840 | 83 | 171 | 3.0 | 7.0 | 0.00 | 0.00 | 0.00 | 37 | 1020.3 |
| 20260831193107 | 83 | 0 | 3.0 | 9.0 | 0.00 | 0.00 | 0.00 | 35 | 1020.3 |
| 20260831192606 | 83 | 0 | 3.0 | 9.0 | 0.00 | 0.00 | 0.00 | 35 | 1020.3 |
| 20260831192334 | 82 | 0 | 3.0 | 10.0 | 0.00 | 0.00 | 0.00 | 39 | 1020.4 |
| 20260831191604 | 82 | 0 | 3.0 | 10.0 | 0.00 | 0.00 | 0.00 | 38 | 1020.5 |
| 20260831191105 | 82 | 0 | 4.0 | 10.0 | 0.00 | 0.00 | 0.00 | 40 | 1020.5 |
| 20260831190605 | 82 | 0 | 4.0 | 10.0 | 0.00 | 0.00 | 0.00 | 37 | 1020.5 |
| 20260831190105 | 82 | 0 | 4.0 | 9.0 | 0.00 | 0.00 | 0.00 | 38 | 1020.6 |
| 20260831185604 | 82 | 0 | 4.0 | 7.0 | 0.00 | 0.00 | 0.00 | 37 | 1020.6 |
| 20260831185109 | 81 | 0 | 5.0 | 9.0 | 0.00 | 0.00 | 0.00 | 39 | 1020.6 |
| 20260831185104 | 81 | 0 | 5.0 | 7.0 | 0.00 | 0.00 | 0.00 | 38 | 1020.6 |
| 20260831184102 | 81 | 0 | 5.0 | 10.0 | 0.00 | 0.00 | 0.00 | 36 | 1020.6 |
| 20260831183601 | 81 | 0 | 5.0 | 10.0 | 0.00 | 0.00 | 0.00 | 35 | 1020.8 |
| 20260831183107 | 81 | 114 | 4.0 | 7.0 | 0.00 | 0.00 | 0.00 | 36 | 1020.8 |
| 20260831183102 | 81 | 106 | 4.0 | 8.0 | 0.00 | 0.00 | 0.00 | 36 | 1020.8 |
| 20260831182103 | 81 | 0 | 4.0 | 7.0 | 0.00 | 0.00 | 0.00 | 38 | 1020.9 |
| 20260831181602 | 81 | 0 | 3.0 | 7.0 | 0.00 | 0.00 | 0.00 | 36 | 1020.9 |
| 20260831181102 | 81 | 0 | 3.0 | 6.0 | 0.00 | 0.00 | 0.00 | 37 | 1020.9 |
| 20260831180602 | 81 | 0 | 4.0 | 8.0 | 0.00 | 0.00 | 0.00 | 34 | 1021.1 |
| 20260831180100 | 81 | 0 | 5.0 | 9.0 | 0.00 | 0.00 | 0.00 | 34 | 1021.1 |
| 20260831175601 | 81 | 0 | 6.0 | 10.0 | 0.00 | 0.00 | 0.00 | 34 | 1021.2 |
| 20260831175332 | 81 | 0 | 5.0 | 10.0 | 0.00 | 0.00 | 0.00 | 36 | 1021.2 |
| 20260831174600 | 81 | 0 | 4.0 | 7.0 | 0.00 | 0.00 | 0.00 | 36 | 1021.2 |
| 20260831174101 | 81 | 0 | 3.0 | 7.0 | 0.00 | 0.00 | 0.00 | 36 | 1021.2 |
| 20260831173601 | 81 | 0 | 3.0 | 7.0 | 0.00 | 0.00 | 0.00 | 37 | 1021.2 |
| 20260831173332 | 81 | 0 | 2.0 | 7.0 | 0.00 | 0.00 | 0.00 | 37 | 1021.2 |
| 20260831172601 | 81 | 0 | 3.0 | 7.0 | 0.00 | 0.00 | 0.00 | 36 | 1021.2 |
| 20260831172332 | 81 | 0 | 3.0 | 7.0 | 0.00 | 0.00 | 0.00 | 36 | 1021.3 |
| 20260831171601 | 80 | 123 | 3.0 | 7.0 | 0.00 | 0.00 | 0.00 | 38 | 1021.3 |
| 20260831171058 | 80 | 0 | 3.0 | 7.0 | 0.00 | 0.00 | 0.00 | 35 | 1021.3 |
| 20260831170829 | 81 | 0 | 4.0 | 7.0 | 0.00 | 0.00 | 0.00 | 35 | 1021.2 |
| 20260831170058 | 81 | 0 | 2.0 | 7.0 | 0.00 | 0.00 | 0.00 | 36 | 1021.3 |
| 20260831165558 | 81 | 0 | 1.0 | 7.0 | 0.00 | 0.00 | 0.00 | 40 | 1021.3 |
| 20260831165058 | 80 | 109 | 1.0 | 6.0 | 0.00 | 0.00 | 0.00 | 39 | 1021.3 |
| 20260831164830 | 81 | 109 | 1.0 | 7.0 | 0.00 | 0.00 | 0.00 | 35 | 1021.4 |
| 20260831164330 | 81 | 0 | 1.0 | 7.0 | 0.00 | 0.00 | 0.00 | 41 | 1021.3 |
| 20260831164219 | 80 | 0 | 2.0 | 8.0 | 0.00 | 0.00 | 0.00 | 38 | 1021.4 |
| 20260831163059 | 80 | 0 | 2.0 | 8.0 | 0.00 | 0.00 | 0.00 | 41 | 1021.4 |
| 20260831162830 | 79 | 0 | 1.0 | 7.0 | 0.00 | 0.00 | 0.00 | 42 | 1021.4 |
| 20260831162055 | 78 | 0 | 0.0 | 1.0 | 0.00 | 0.00 | 0.00 | 46 | 1021.4 |
| 20260831161827 | 77 | 0 | 0.0 | 2.0 | 0.00 | 0.00 | 0.00 | 45 | 1021.3 |
| 20260831161056 | 77 | 0 | 0.0 | 2.0 | 0.00 | 0.00 | 0.00 | 43 | 1021.2 |
| 20260831160556 | 76 | 0 | 0.0 | 0.0 | 0.00 | 0.00 | 0.00 | 46 | 1021.2 |
| 20260831160327 | 76 | 0 | 0.0 | 4.0 | 0.00 | 0.00 | 0.00 | 46 | 1021.3 |
| 20260831155600 | 76 | 0 | 0.0 | 2.0 | 0.00 | 0.00 | 0.00 | 48 | 1021.3 |
| 20260831155556 | 76 | 0 | 0.0 | 4.0 | 0.00 | 0.00 | 0.00 | 47 | 1021.2 |
| 20260831154554 | 74 | 0 | 0.0 | 2.0 | 0.00 | 0.00 | 0.00 | 50 | 1021.2 |
| 20260831154052 | 74 | 0 | 0.0 | 1.0 | 0.00 | 0.00 | 0.00 | 52 | 1021.2 |
| 20260831153554 | 73 | 0 | 0.0 | 0.0 | 0.00 | 0.00 | 0.00 | 48 | 1021.1 |
| 20260831153324 | 72 | 0 | 0.0 | 0.0 | 0.00 | 0.00 | 0.00 | 56 | 1021.1 |
| 20260831152553 | 72 | 0 | 0.0 | 0.0 | 0.00 | 0.00 | 0.00 | 58 | 1021.1 |
| 20260831152054 | 71 | 0 | 0.0 | 0.0 | 0.00 | 0.00 | 0.00 | 56 | 1021.1 |
| 20260831151823 | 70 | 0 | 0.0 | 2.0 | 0.00 | 0.00 | 0.00 | 56 | 1021.2 |
| 20260831151053 | 69 | 0 | 0.0 | 2.0 | 0.00 | 0.00 | 0.00 | 59 | 1021.3 |
| 20260831150551 | 69 | 0 | 0.0 | 2.0 | 0.00 | 0.00 | 0.00 | 63 | 1021.3 |
| 20260831150052 | 68 | 0 | 0.0 | 0.0 | 0.00 | 0.00 | 0.00 | 68 | 1021.3 |
| 20260831145822 | 67 | 0 | 0.0 | 2.0 | 0.00 | 0.00 | 0.00 | 61 | 1021.4 |
| 20260831145051 | 67 | 0 | 0.0 | 2.0 | 0.00 | 0.00 | 0.00 | 66 | 1021.3 |
| 20260831144548 | 66 | 0 | 0.0 | 1.0 | 0.00 | 0.00 | 0.00 | 68 | 1021.2 |
| 20260831144322 | 65 | 0 | 0.0 | 1.0 | 0.00 | 0.00 | 0.00 | 68 | 1021.1 |
| 20260831143549 | 65 | 0 | 0.0 | 0.0 | 0.00 | 0.00 | 0.00 | 66 | 1021.1 |
| 20260831143049 | 64 | 0 | 0.0 | 0.0 | 0.00 | 0.00 | 0.00 | 69 | 1021.1 |
| 20260831142820 | 64 | 0 | 0.0 | 0.0 | 0.00 | 0.00 | 0.00 | 71 | 1021.1 |
| 20260831142048 | 63 | 0 | 0.0 | 1.0 | 0.00 | 0.00 | 0.00 | 71 | 1021.1 |
| 20260831141550 | 62 | 0 | 0.0 | 1.0 | 0.00 | 0.00 | 0.00 | 75 | 1021.1 |
| 20260831141319 | 62 | 0 | 0.0 | 1.0 | 0.00 | 0.00 | 0.00 | 76 | 1020.9 |
| 20260831140550 | 61 | 0 | 0.0 | 1.0 | 0.00 | 0.00 | 0.00 | 76 | 1020.9 |
| 20260831140048 | 61 | 0 | 0.0 | 1.0 | 0.00 | 0.00 | 0.00 | 79 | 1020.9 |
| 20260831135550 | 60 | 0 | 0.0 | 1.0 | 0.00 | 0.00 | 0.00 | 81 | 1020.8 |
| 20260831135048 | 60 | 0 | 0.0 | 0.0 | 0.00 | 0.00 | 0.00 | 83 | 1020.8 |
| 20260831134549 | 60 | 0 | 0.0 | 1.0 | 0.00 | 0.00 | 0.00 | 82 | 1020.8 |
| 20260831134050 | 59 | 0 | 0.0 | 1.0 | 0.00 | 0.00 | 0.00 | 82 | 1020.9 |
| 20260831133549 | 59 | 0 | 0.0 | 1.0 | 0.00 | 0.00 | 0.00 | 81 | 1020.8 |
| 20260831133047 | 59 | 0 | 0.0 | 2.0 | 0.00 | 0.00 | 0.00 | 81 | 1020.5 |
| 20260831132547 | 59 | 0 | 0.0 | 2.0 | 0.00 | 0.00 | 0.00 | 82 | 1020.5 |
| 20260831132047 | 59 | 0 | 0.0 | 1.0 | 0.00 | 0.00 | 0.00 | 83 | 1020.4 |
| 20260831131547 | 58 | 0 | 0.0 | 1.0 | 0.00 | 0.00 | 0.00 | 83 | 1020.4 |
| 20260831131046 | 58 | 0 | 0.0 | 1.0 | 0.00 | 0.00 | 0.00 | 84 | 1020.3 |
| 20260831130548 | 58 | 0 | 0.0 | 1.0 | 0.00 | 0.00 | 0.00 | 85 | 1020.4 |
| 20260831130046 | 58 | 0 | 0.0 | 2.0 | 0.00 | 0.00 | 0.00 | 84 | 1020.2 |
| 20260831125547 | 58 | 0 | 0.0 | 2.0 | 0.00 | 0.00 | 0.00 | 83 | 1019.9 |
| 20260831125047 | 58 | 0 | 0.0 | 2.0 | 0.00 | 0.00 | 0.00 | 84 | 1020.1 |
| 20260831124823 | 58 | 0 | 0.0 | 1.0 | 0.00 | 0.00 | 0.00 | 83 | 1019.9 |
| 20260831124548 | 58 | 0 | 0.0 | 1.0 | 0.00 | 0.00 | 0.00 | 83 | 1019.9 |
| 20260831123547 | 58 | 0 | 0.0 | 0.0 | 0.00 | 0.00 | 0.00 | 82 | 1019.8 |
| 20260831123047 | 58 | 0 | 0.0 | 0.0 | 0.00 | 0.00 | 0.00 | 82 | 1019.8 |
| 20260831122547 | 58 | 0 | 0.0 | 0.0 | 0.00 | 0.00 | 0.00 | 82 | 1019.8 |
| 20260831122048 | 58 | 0 | 0.0 | 1.0 | 0.00 | 0.00 | 0.00 | 82 | 1019.9 |
| 20260831121547 | 58 | 0 | 0.0 | 1.0 | 0.00 | 0.00 | 0.00 | 83 | 1019.9 |
| 20260831121048 | 58 | 0 | 0.0 | 2.0 | 0.00 | 0.00 | 0.00 | 82 | 1019.7 |
| 20260831120548 | 58 | 0 | 0.0 | 2.0 | 0.00 | 0.00 | 0.00 | 83 | 1019.7 |
| 20260831120048 | 58 | 281 | 0.0 | 1.0 | 0.00 | 0.00 | 0.00 | 83 | 1019.7 |
| 20260831115547 | 58 | 281 | 0.0 | 2.0 | 0.00 | 0.00 | 0.00 | 82 | 1019.6 |
| 20260831115048 | 58 | 282 | 0.0 | 2.0 | 0.00 | 0.00 | 0.00 | 82 | 1019.7 |
| 20260831114547 | 58 | 285 | 0.0 | 2.0 | 0.00 | 0.00 | 0.00 | 82 | 1019.6 |
| 20260831114047 | 58 | 0 | 1.0 | 2.0 | 0.00 | 0.00 | 0.00 | 82 | 1019.7 |
| 20260831113820 | 58 | 0 | 0.0 | 2.0 | 0.00 | 0.00 | 0.00 | 82 | 1019.7 |
| 20260831113046 | 58 | 327 | 0.0 | 1.0 | 0.00 | 0.00 | 0.00 | 81 | 1019.7 |
| 20260831112548 | 58 | 0 | 0.0 | 1.0 | 0.00 | 0.00 | 0.00 | 81 | 1019.5 |
| 20260831112048 | 58 | 0 | 0.0 | 1.0 | 0.00 | 0.00 | 0.00 | 81 | 1019.5 |
| 20260831111547 | 58 | 288 | 0.0 | 2.0 | 0.00 | 0.00 | 0.00 | 81 | 1019.6 |
| 20260831111046 | 59 | 0 | 0.0 | 2.0 | 0.00 | 0.00 | 0.00 | 80 | 1019.6 |
| 20260831110547 | 59 | 0 | 0.0 | 2.0 | 0.00 | 0.00 | 0.00 | 80 | 1019.6 |
| 20260831110047 | 59 | 0 | 0.0 | 2.0 | 0.00 | 0.00 | 0.00 | 80 | 1019.5 |
| 20260831105546 | 58 | 0 | 0.0 | 1.0 | 0.00 | 0.00 | 0.00 | 81 | 1019.4 |
| 20260831105320 | 58 | 0 | 0.0 | 1.0 | 0.00 | 0.00 | 0.00 | 80 | 1019.1 |
| 20260831104547 | 58 | 0 | 0.0 | 2.0 | 0.00 | 0.00 | 0.00 | 81 | 1019.3 |
| 20260831104047 | 58 | 0 | 1.0 | 3.0 | 0.00 | 0.00 | 0.00 | 80 | 1019.3 |
| 20260831103818 | 58 | 0 | 0.0 | 3.0 | 0.00 | 0.00 | 0.00 | 82 | 1019.3 |
| 20260831103048 | 58 | 0 | 0.0 | 0.0 | 0.00 | 0.00 | 0.00 | 82 | 1019.0 |
| 20260831102817 | 58 | 0 | 0.0 | 0.0 | 0.00 | 0.00 | 0.00 | 82 | 1019.0 |
| 20260831102048 | 59 | 0 | 0.0 | 1.0 | 0.00 | 0.00 | 0.00 | 81 | 1018.9 |
| 20260831101548 | 59 | 0 | 0.0 | 1.0 | 0.00 | 0.00 | 0.00 | 82 | 1019.0 |
| 20260831101047 | 59 | 0 | 0.0 | 1.0 | 0.00 | 0.00 | 0.00 | 81 | 1019.0 |
| 20260831100819 | 59 | 0 | 0.0 | 2.0 | 0.00 | 0.00 | 0.00 | 81 | 1018.9 |
| 20260831100048 | 59 | 0 | 0.0 | 2.0 | 0.00 | 0.00 | 0.00 | 80 | 1018.9 |
| 20260831095548 | 59 | 0 | 0.0 | 1.0 | 0.00 | 0.00 | 0.00 | 80 | 1018.9 |
| 20260831095046 | 59 | 0 | 0.0 | 2.0 | 0.00 | 0.00 | 0.00 | 80 | 1018.8 |
| 20260831094546 | 59 | 0 | 1.0 | 2.0 | 0.00 | 0.00 | 0.00 | 80 | 1018.8 |
| 20260831094318 | 59 | 0 | 0.0 | 2.0 | 0.00 | 0.00 | 0.00 | 80 | 1018.8 |
| 20260831093819 | 59 | 0 | 0.0 | 1.0 | 0.00 | 0.00 | 0.00 | 80 | 1018.7 |
| 20260831093047 | 59 | 0 | 1.0 | 3.0 | 0.00 | 0.00 | 0.00 | 80 | 1018.8 |
| 20260831092546 | 59 | 0 | 1.0 | 3.0 | 0.00 | 0.00 | 0.00 | 80 | 1018.8 |
| 20260831092048 | 60 | 0 | 0.0 | 2.0 | 0.00 | 0.00 | 0.00 | 80 | 1018.8 |
| 20260831091818 | 60 | 0 | 0.0 | 0.0 | 0.00 | 0.00 | 0.00 | 80 | 1018.6 |
| 20260831091047 | 60 | 281 | 0.0 | 2.0 | 0.00 | 0.00 | 0.00 | 79 | 1018.6 |
| 20260831090817 | 60 | 281 | 0.0 | 2.0 | 0.00 | 0.00 | 0.00 | 79 | 1018.6 |
| 20260831090046 | 60 | 0 | 0.0 | 2.0 | 0.00 | 0.00 | 0.00 | 79 | 1018.6 |
| 20260831085817 | 60 | 293 | 0.0 | 1.0 | 0.00 | 0.00 | 0.00 | 80 | 1018.6 |
| 20260831085047 | 60 | 0 | 0.0 | 0.0 | 0.00 | 0.00 | 0.00 | 79 | 1018.7 |
| 20260831084817 | 60 | 0 | 0.0 | 0.0 | 0.00 | 0.00 | 0.00 | 78 | 1018.6 |
| 20260831084046 | 60 | 0 | 0.0 | 1.0 | 0.00 | 0.00 | 0.00 | 77 | 1018.7 |
| 20260831083546 | 60 | 0 | 0.0 | 1.0 | 0.00 | 0.00 | 0.00 | 78 | 1018.8 |
| 20260831083046 | 61 | 0 | 0.0 | 0.0 | 0.00 | 0.00 | 0.00 | 77 | 1018.6 |
| 20260831082547 | 61 | 293 | 0.0 | 0.0 | 0.00 | 0.00 | 0.00 | 77 | 1018.3 |
| 20260831082046 | 61 | 294 | 0.0 | 0.0 | 0.00 | 0.00 | 0.00 | 77 | 1018.4 |
| 20260831081546 | 61 | 293 | 0.0 | 0.0 | 0.00 | 0.00 | 0.00 | 76 | 1018.3 |
| 20260831081048 | 61 | 293 | 0.0 | 0.0 | 0.00 | 0.00 | 0.00 | 76 | 1018.4 |
| 20260831080547 | 61 | 293 | 0.0 | 1.0 | 0.00 | 0.00 | 0.00 | 76 | 1018.4 |
| 20260831080319 | 61 | 293 | 0.0 | 2.0 | 0.00 | 0.00 | 0.00 | 76 | 1018.4 |
| 20260831075546 | 61 | 0 | 0.0 | 2.0 | 0.00 | 0.00 | 0.00 | 76 | 1018.6 |
| 20260831075046 | 62 | 0 | 0.0 | 0.0 | 0.00 | 0.00 | 0.00 | 75 | 1018.6 |
| 20260831074546 | 62 | 0 | 0.0 | 0.0 | 0.00 | 0.00 | 0.00 | 74 | 1018.4 |
| 20260831074047 | 62 | 0 | 0.0 | 0.0 | 0.00 | 0.00 | 0.00 | 74 | 1018.6 |
| 20260831073547 | 62 | 0 | 0.0 | 0.0 | 0.00 | 0.00 | 0.00 | 74 | 1018.8 |
| 20260831073318 | 63 | 0 | 0.0 | 0.0 | 0.00 | 0.00 | 0.00 | 74 | 1018.8 |
| 20260831072817 | 63 | 0 | 0.0 | 0.0 | 0.00 | 0.00 | 0.00 | 74 | 1018.7 |
| 20260831072046 | 63 | 0 | 0.0 | 1.0 | 0.00 | 0.00 | 0.00 | 71 | 1018.8 |
| 20260831071546 | 63 | 0 | 0.0 | 2.0 | 0.00 | 0.00 | 0.00 | 71 | 1018.7 |
| 20260831071048 | 63 | 297 | 0.0 | 2.0 | 0.00 | 0.00 | 0.00 | 72 | 1018.8 |
| 20260831070544 | 64 | 0 | 0.0 | 2.0 | 0.00 | 0.00 | 0.00 | 74 | 1018.9 |
| 20260831070046 | 64 | 0 | 0.0 | 2.0 | 0.00 | 0.00 | 0.00 | 71 | 1018.9 |
| 20260831065815 | 64 | 0 | 0.0 | 2.0 | 0.00 | 0.00 | 0.00 | 71 | 1018.9 |
| 20260831065045 | 64 | 0 | 1.0 | 2.0 | 0.00 | 0.00 | 0.00 | 70 | 1018.9 |
| 20260831064543 | 64 | 0 | 1.0 | 2.0 | 0.00 | 0.00 | 0.00 | 72 | 1019.0 |
| 20260831064042 | 64 | 0 | 1.0 | 3.0 | 0.00 | 0.00 | 0.00 | 71 | 1018.9 |
| 20260831063540 | 64 | 0 | 1.0 | 3.0 | 0.00 | 0.00 | 0.00 | 72 | 1018.9 |
| 20260831063041 | 65 | 0 | 1.0 | 4.0 | 0.00 | 0.00 | 0.00 | 73 | 1018.9 |
| 20260831062812 | 65 | 0 | 1.0 | 4.0 | 0.00 | 0.00 | 0.00 | 71 | 1018.8 |
| 20260831062041 | 65 | 0 | 1.0 | 3.0 | 0.00 | 0.00 | 0.00 | 71 | 1019.1 |
| 20260831061541 | 65 | 0 | 1.0 | 4.0 | 0.00 | 0.00 | 0.00 | 70 | 1018.9 |
| 20260831061040 | 65 | 0 | 0.0 | 4.0 | 0.00 | 0.00 | 0.00 | 70 | 1019.0 |
| 20260831060542 | 65 | 0 | 0.0 | 4.0 | 0.00 | 0.00 | 0.00 | 71 | 1019.4 |
| 20260831060041 | 65 | 0 | 1.0 | 4.0 | 0.00 | 0.00 | 0.00 | 72 | 1019.3 |
| 20260831055809 | 65 | 0 | 0.0 | 3.0 | 0.00 | 0.00 | 0.00 | 72 | 1019.3 |
| 20260831055037 | 65 | 0 | 1.0 | 4.0 | 0.00 | 0.00 | 0.00 | 73 | 1019.4 |
| 20260831054538 | 65 | 0 | 1.0 | 4.0 | 0.00 | 0.00 | 0.00 | 72 | 1019.5 |
| 20260831054036 | 65 | 0 | 1.0 | 3.0 | 0.00 | 0.00 | 0.00 | 72 | 1019.5 |
| 20260831053538 | 65 | 0 | 1.0 | 3.0 | 0.00 | 0.00 | 0.00 | 72 | 1019.5 |
| 20260831053036 | 65 | 0 | 0.0 | 2.0 | 0.00 | 0.00 | 0.00 | 71 | 1019.6 |
| 20260831052535 | 65 | 0 | 0.0 | 2.0 | 0.00 | 0.00 | 0.00 | 70 | 1019.5 |
| 20260831052036 | 65 | 0 | 0.0 | 3.0 | 0.00 | 0.00 | 0.00 | 69 | 1019.5 |
| 20260831051534 | 65 | 0 | 0.0 | 3.0 | 0.00 | 0.00 | 0.00 | 69 | 1019.5 |
| 20260831051035 | 65 | 0 | 0.0 | 0.0 | 0.00 | 0.00 | 0.00 | 67 | 1019.7 |
| 20260831050534 | 65 | 0 | 0.0 | 0.0 | 0.00 | 0.00 | 0.00 | 67 | 1019.8 |
| 20260831050034 | 65 | 0 | 0.0 | 0.0 | 0.00 | 0.00 | 0.00 | 67 | 1019.6 |
| 20260831045534 | 65 | 0 | 0.0 | 2.0 | 0.00 | 0.00 | 0.00 | 67 | 1019.7 |
| 20260831045035 | 65 | 0 | 0.0 | 3.0 | 0.00 | 0.00 | 0.00 | 68 | 1019.6 |
| 20260831044536 | 65 | 0 | 0.0 | 3.0 | 0.00 | 0.00 | 0.00 | 70 | 1019.9 |
| 20260831044306 | 65 | 0 | 0.0 | 2.0 | 0.00 | 0.00 | 0.00 | 69 | 1019.8 |
| 20260831043804 | 65 | 0 | 0.0 | 3.0 | 0.00 | 0.00 | 0.00 | 69 | 1019.8 |
| 20260831043652 | 65 | 0 | 0.0 | 1.0 | 0.00 | 0.00 | 0.00 | 70 | 1019.7 |
| 20260831043031 | 65 | 0 | 0.0 | 3.0 | 0.00 | 0.00 | 0.00 | 69 | 1019.8 |
| 20260831042030 | 65 | 0 | 0.0 | 1.0 | 0.00 | 0.00 | 0.00 | 70 | 1019.6 |
| 20260831041801 | 65 | 0 | 0.0 | 0.0 | 0.00 | 0.00 | 0.00 | 71 | 1019.5 |
| 20260831041030 | 65 | 0 | 0.0 | 0.0 | 0.00 | 0.00 | 0.00 | 68 | 1019.5 |
| 20260831040532 | 65 | 0 | 0.0 | 0.0 | 0.00 | 0.00 | 0.00 | 68 | 1019.5 |
| 20260831040301 | 65 | 0 | 0.0 | 0.0 | 0.00 | 0.00 | 0.00 | 67 | 1019.5 |
| 20260831035529 | 65 | 0 | 0.0 | 0.0 | 0.00 | 0.00 | 0.00 | 67 | 1019.5 |
| 20260831035300 | 65 | 0 | 0.0 | 0.0 | 0.00 | 0.00 | 0.00 | 67 | 1019.7 |
| 20260831034528 | 65 | 0 | 0.0 | 1.0 | 0.00 | 0.00 | 0.00 | 68 | 1019.8 |
| 20260831034029 | 65 | 0 | 0.0 | 3.0 | 0.00 | 0.00 | 0.00 | 69 | 1019.8 |
| 20260831033529 | 65 | 0 | 0.0 | 3.0 | 0.00 | 0.00 | 0.00 | 69 | 1019.8 |
| 20260831033259 | 65 | 140 | 0.0 | 0.0 | 0.00 | 0.00 | 0.00 | 69 | 1019.6 |
| 20260831032528 | 65 | 140 | 0.0 | 0.0 | 0.00 | 0.00 | 0.00 | 69 | 1019.5 |
| 20260831032029 | 65 | 140 | 0.0 | 0.0 | 0.00 | 0.00 | 0.00 | 72 | 1019.5 |
| 20260831031530 | 65 | 140 | 0.0 | 0.0 | 0.00 | 0.00 | 0.00 | 71 | 1019.4 |
| 20260831031030 | 65 | 140 | 0.0 | 0.0 | 0.00 | 0.00 | 0.00 | 69 | 1019.3 |
| 20260831030531 | 65 | 140 | 0.0 | 0.0 | 0.00 | 0.00 | 0.00 | 71 | 1019.3 |
| 20260831030526 | 65 | 140 | 0.0 | 0.0 | 0.00 | 0.00 | 0.00 | 70 | 1019.3 |
| 20260831025524 | 66 | 0 | 0.0 | 0.0 | 0.00 | 0.00 | 0.00 | 73 | 1019.3 |
| 20260831025025 | 66 | 0 | 0.0 | 0.0 | 0.00 | 0.00 | 0.00 | 72 | 1019.3 |
| 20260831024525 | 66 | 0 | 0.0 | 0.0 | 0.00 | 0.00 | 0.00 | 70 | 1019.3 |
| 20260831024029 | 67 | 0 | 0.0 | 0.0 | 0.00 | 0.00 | 0.00 | 71 | 1019.1 |
| 20260831024025 | 67 | 0 | 0.0 | 0.0 | 0.00 | 0.00 | 0.00 | 70 | 1019.0 |
| 20260831023022 | 67 | 0 | 0.0 | 2.0 | 0.00 | 0.00 | 0.00 | 68 | 1018.9 |
| 20260831022522 | 67 | 0 | 0.0 | 2.0 | 0.00 | 0.00 | 0.00 | 65 | 1018.8 |
| 20260831022023 | 67 | 0 | 0.0 | 1.0 | 0.00 | 0.00 | 0.00 | 62 | 1018.8 |
| 20260831021521 | 67 | 140 | 0.0 | 0.0 | 0.00 | 0.00 | 0.00 | 62 | 1018.7 |
| 20260831021022 | 68 | 140 | 0.0 | 0.0 | 0.00 | 0.00 | 0.00 | 64 | 1018.6 |
| 20260831020523 | 68 | 140 | 0.0 | 2.0 | 0.00 | 0.00 | 0.00 | 64 | 1018.6 |
| 20260831020024 | 69 | 0 | 0.0 | 3.0 | 0.00 | 0.00 | 0.00 | 61 | 1018.6 |
| 20260831015522 | 69 | 0 | 0.0 | 3.0 | 0.00 | 0.00 | 0.00 | 60 | 1018.6 |
| 20260831015023 | 69 | 0 | 0.0 | 0.0 | 0.00 | 0.00 | 0.00 | 59 | 1018.4 |
| 20260831014753 | 70 | 0 | 0.0 | 1.0 | 0.00 | 0.00 | 0.00 | 57 | 1018.4 |
| 20260831014022 | 70 | 0 | 1.0 | 3.0 | 0.00 | 0.00 | 0.00 | 59 | 1018.4 |
| 20260831013521 | 71 | 0 | 1.0 | 3.0 | 0.00 | 0.00 | 0.00 | 58 | 1018.2 |
| 20260831013020 | 71 | 0 | 1.0 | 3.0 | 0.00 | 0.00 | 0.00 | 56 | 1018.3 |
| 20260831012520 | 72 | 0 | 2.0 | 3.0 | 0.00 | 0.00 | 0.00 | 54 | 1018.2 |
| 20260831012021 | 72 | 0 | 1.0 | 3.0 | 0.00 | 0.00 | 0.00 | 51 | 1018.2 |
| 20260831011753 | 72 | 0 | 1.0 | 3.0 | 0.00 | 0.00 | 0.00 | 50 | 1018.3 |
| 20260831011020 | 73 | 0 | 0.0 | 2.0 | 0.00 | 0.00 | 0.00 | 51 | 1018.3 |
| 20260831010753 | 73 | 0 | 0.0 | 0.0 | 0.00 | 0.00 | 0.00 | 54 | 1018.2 |
| 20260831010020 | 73 | 0 | 0.0 | 0.0 | 0.00 | 0.00 | 0.00 | 51 | 1018.2 |
| 20260831005519 | 73 | 0 | 0.0 | 0.0 | 0.00 | 0.00 | 0.00 | 52 | 1018.2 |
| 20260831005018 | 73 | 0 | 0.0 | 0.0 | 0.00 | 0.00 | 0.00 | 51 | 1018.2 |
| 20260831004518 | 74 | 0 | 0.0 | 0.0 | 0.00 | 0.00 | 0.00 | 49 | 1018.2 |
| 20260831004018 | 74 | 0 | 0.0 | 1.0 | 0.00 | 0.00 | 0.00 | 51 | 1018.3 |
| 20260831003517 | 74 | 0 | 0.0 | 1.0 | 0.00 | 0.00 | 0.00 | 51 | 1018.4 |
| 20260831003244 | 74 | 0 | 0.0 | 2.0 | 0.00 | 0.00 | 0.00 | 50 | 1018.6 |
| 20260831002515 | 75 | 0 | 0.0 | 2.0 | 0.00 | 0.00 | 0.00 | 49 | 1018.4 |
| 20260831002014 | 75 | 0 | 1.0 | 2.0 | 0.00 | 0.00 | 0.00 | 49 | 1018.6 |
| 20260831001513 | 75 | 0 | 2.0 | 6.0 | 0.00 | 0.00 | 0.00 | 45 | 1018.6 |
| 20260831001018 | 76 | 0 | 3.0 | 6.0 | 0.00 | 0.00 | 0.00 | 44 | 1018.7 |
| 20260831001014 | 76 | 0 | 4.0 | 6.0 | 0.00 | 0.00 | 0.00 | 43 | 1018.6 |
| 20260831000011 | 76 | 0 | 3.0 | 5.0 | 0.00 | 0.00 | 0.00 | 44 | 1018.7 |
| 20260830235743 | 76 | 0 | 3.0 | 6.0 | 0.00 | 0.00 | 0.00 | 43 | 1018.6 |
| 20260830235010 | 76 | 0 | 3.0 | 6.0 | 0.00 | 0.00 | 0.00 | 43 | 1018.6 |
| 20260830234510 | 76 | 0 | 3.0 | 6.0 | 0.00 | 0.00 | 0.00 | 43 | 1018.4 |
| 20260830234010 | 76 | 0 | 3.0 | 5.0 | 0.00 | 0.00 | 0.00 | 43 | 1018.6 |
| 20260830233508 | 76 | 0 | 1.0 | 5.0 | 0.00 | 0.00 | 0.00 | 42 | 1018.4 |
| 20260830233008 | 76 | 0 | 0.0 | 2.0 | 0.00 | 0.00 | 0.00 | 43 | 1018.3 |
| 20260830232508 | 76 | 0 | 1.0 | 3.0 | 0.00 | 0.00 | 0.00 | 45 | 1018.4 |
| 20260830232008 | 76 | 0 | 2.0 | 5.0 | 0.00 | 0.00 | 0.00 | 43 | 1018.3 |
| 20260830231738 | 76 | 0 | 2.0 | 5.0 | 0.00 | 0.00 | 0.00 | 41 | 1018.3 |
| 20260830231008 | 76 | 0 | 2.0 | 4.0 | 0.00 | 0.00 | 0.00 | 41 | 1018.4 |
| 20260830230508 | 76 | 0 | 2.0 | 5.0 | 0.00 | 0.00 | 0.00 | 40 | 1018.3 |
| 20260830230009 | 76 | 0 | 2.0 | 6.0 | 0.00 | 0.00 | 0.00 | 43 | 1018.4 |
| 20260830225507 | 76 | 0 | 2.0 | 6.0 | 0.00 | 0.00 | 0.00 | 42 | 1018.4 |
| 20260830225007 | 75 | 0 | 2.0 | 6.0 | 0.00 | 0.00 | 0.00 | 47 | 1018.6 |
| 20260830224506 | 75 | 348 | 2.0 | 5.0 | 0.00 | 0.00 | 0.00 | 46 | 1018.6 |
| 20260830224006 | 74 | 0 | 2.0 | 5.0 | 0.00 | 0.00 | 0.00 | 46 | 1018.6 |
| 20260830223508 | 74 | 0 | 1.0 | 5.0 | 0.00 | 0.00 | 0.00 | 48 | 1018.3 |
| 20260830223239 | 74 | 0 | 0.0 | 3.0 | 0.00 | 0.00 | 0.00 | 46 | 1018.4 |
| 20260830222506 | 75 | 0 | 0.0 | 3.0 | 0.00 | 0.00 | 0.00 | 47 | 1018.6 |
| 20260830222007 | 75 | 0 | 1.0 | 4.0 | 0.00 | 0.00 | 0.00 | 47 | 1018.3 |
| 20260830221506 | 75 | 0 | 1.0 | 4.0 | 0.00 | 0.00 | 0.00 | 46 | 1018.3 |
| 20260830221004 | 75 | 0 | 1.0 | 5.0 | 0.00 | 0.00 | 0.00 | 46 | 1018.6 |
| 20260830220505 | 75 | 0 | 1.0 | 5.0 | 0.00 | 0.00 | 0.00 | 45 | 1018.4 |
| 20260830220004 | 76 | 0 | 1.0 | 5.0 | 0.00 | 0.00 | 0.00 | 50 | 1018.7 |
| 20260830215504 | 76 | 0 | 1.0 | 5.0 | 0.00 | 0.00 | 0.00 | 47 | 1018.8 |
| 20260830215005 | 76 | 0 | 2.0 | 7.0 | 0.00 | 0.00 | 0.00 | 47 | 1019.0 |